2E1HJE-10 Weather Reports


time (UTC)temp
F
wind
direction
speed
knots
gust
knots
rain 1hr
in
rain 24hr
in
rain mn
in
humidity
%
barometer
mb
20260506130827 53 10 8.7 16.5 0.00 0.01 0.01 74 1012.9
20260506124827 53 12 8.7 18.2 0.00 0.00 0.00 73 1012.6
20260506122827 52 16 9.6 18.2 0.00 0.00 0.00 73 1012.6
20260506120827 52 18 10.4 19.1 0.00 0.00 0.00 73 1012.6
20260506115827 53 353 10.4 19.1 0.00 0.00 0.00 58 1012.2
20260506111827 52 358 9.6 19.1 0.00 0.00 0.00 63 1012.5
20260506110828 53 0 9.6 19.1 0.00 0.00 0.00 63 1012.5
20260506103827 52 357 7.8 17.4 0.00 0.00 0.00 64 1012.2
20260506093827 52 358 8.7 17.4 0.00 0.00 0.00 63 1012.4
20260506080827 49 350 9.6 18.2 0.00 0.00 0.00 67 1012.6
20260506061827 48 354 8.7 15.6 0.00 0.00 0.00 73 1012.3
20260506044827 48 0 8.7 15.6 0.00 0.00 0.00 76 1011.9
20260506043827 48 0 8.7 15.6 0.00 0.00 0.00 76 1011.9
20260506042827 48 0 7.8 15.6 0.00 0.00 0.00 76 1011.9
20260506041827 48 0 7.8 15.6 0.00 0.00 0.00 76 1011.9
20260506034827 48 0 7.8 16.5 0.00 0.00 0.00 77 1012.2
20260506030827 49 0 8.7 16.5 0.00 0.00 0.00 77 1012.2
20260506024827 49 2 8.7 15.6 0.00 0.00 0.00 76 1012.4
20260506011827 50 14 8.7 17.4 0.00 0.00 0.00 74 1012.6
20260505225828 52 52 8.7 17.4 0.00 0.00 0.00 76 1012.6
20260505224827 52 52 8.7 17.4 0.00 0.00 0.00 76 1012.6
20260505222827 52 52 8.7 17.4 0.00 0.00 0.00 76 1012.6
20260505213826 52 42 7.8 13.9 0.00 0.00 0.00 78 1012.6
20260505212827 52 42 7.0 12.2 0.00 0.00 0.00 78 1012.6
20260505202827 52 56 7.0 13.0 0.00 0.00 0.00 75 1012.5
20260505183826 52 46 7.0 14.8 0.00 0.00 0.00 76 1011.7
20260505180828 53 46 7.8 15.6 0.00 0.00 0.00 77 1011.4
20260505175827 53 42 7.8 13.0 0.00 0.00 0.00 73 1011.4
20260505174827 53 42 7.8 13.0 0.00 0.00 0.00 73 1011.5
20260505170829 54 42 7.0 13.0 0.00 0.00 0.00 73 1011.5
20260505151830 56 60 8.7 16.5 0.00 0.00 0.00 64 1011.8
20260505150827 56 52 8.7 17.4 0.00 0.00 0.00 65 1011.6